Lihue, HI

2:46 AM HST on November 26, 2014 (GMT -1000)
Lihue | Change Station
CLOSE
Current Station
Airport
Location: Lihue,
Elevation: 102 ft
Nearby Weather Stations
Active Advisory: High Surf Advisory

Elev 102 ft 21.98 °N, 159.34 °W | Updated 53 minutes ago

Overcast
Overcast
73 °F
Feels Like 73 °F
N
15
Wind Variable Wind from NE

Today
High -- | Low -- °F
--% Chance of Precip.
Yesterday
High -- | Low -- °F
Precip. -- in
6:56 AM 5:53 PM
Waxing Crescent, 19% visible
Pressure 30.06 in
Visibility 10.0 miles
Clouds Overcast 4400 ft
Dew Point 56 °F
Humidity 55%
Rainfall 0.00 in
Snow Depth Not available.
UV 0 out of 12
Pollen Not available.
Air Quality Not available.
Flu Activity Not available.
METAR PHLI 261153Z 05013KT 10SM OVC044 23/13 A3007 RMK AO2 SLP180 T02280133 10228 20228 56009 $

More Conditions Fewer Conditions

Pressure 30.06 in
Visibility 10.0 miles
Clouds Overcast 4400 ft
Dew Point 56 °F
Humidity 55%
Rainfall 0.00 in
Snow Depth Not available.
UV 0 out of 12
Pollen Not available.
Air Quality Not available.
Flu Activity Not available.
METAR PHLI 261153Z 05013KT 10SM OVC044 23/13 A3007 RMK AO2 SLP180 T02280133 10228 20228 56009 $

More Conditions Fewer Conditions

10-Day Weather Forecast

Almanac

Astronomy

Nov. 26, 2014 Rise Set
Actual Time
Civil Twilight
Nautical Twilight
Astronomical Twilight
Moon
Length of Visible Light
Length of Day
Tomorrow will be .
, % of the Moon is Illuminated

Today's Extremes

State Highs State Lows

Community

WunderPhotos

Upload Photos

1,773,715 photos uploaded!

WunderBlogs® & News

Nearby

Air Quality

  Air Quality AQ Index Pollutant
Not available.

Snow Depth

Station Depth Elevation

Earthquake Activity

City Distance Mag. Time & Date
Minimum magnitude displayed is 2.5.

Coastal Water Temperatures

Place Temperature

Nearby Weather Stations